Weather observations for the past three days for
Newton, Newton City/County Airport
Imperial (Metric)
Date Time (cdt) Wind (mph) Vis. (mi.) Weather Sky Cond. Temperature (ºF) Relative Humidity Wind Chill (°F) Heat Index (°F) Pressure Precipitation (in)
Air Dwpt 6 hour altimeter (in) sea level (mb) 1 hr 3 hr 6 hr
Max. Min.
19 21:56 SE 10 10.00 Fair CLR 75.9 60.1 58% 78 30.07 1016.7
19 20:56 SE 9 10.00 Fair CLR 78.1 60.1 54% 79 30.05 1016.2
19 19:56 E 7 10.00 Fair CLR 82.9 61 48% 83 30.06 1016.5
19 18:56 SE 7 10.00 Fair CLR 84.9 59 88 82.9 42% 85 30.06 1016.4
19 17:56 S 9 10.00 Fair CLR 87.1 60.1 40% 87 30.06 1016.3
19 16:56 Vrbl 5 10.00 Fair CLR 88 57.9 36% 87 30.08 1016.9
19 15:56 Vrbl 5 10.00 Fair CLR 87.1 59 39% 86 30.09 1017.5
19 14:56 Calm 10.00 Fair CLR 86 57.9 39% 85 30.1 1018.0
19 13:56 S 12 10.00 Fair CLR 86 59 40% 85 30.13 1018.7
19 12:56 Calm 10.00 Fair CLR 84.9 57.9 84.9 62.1 40% 84 30.16 1019.7
19 11:56 S 10 10.00 Fair CLR 82.9 57.9 43% 83 30.17 1020.1
19 10:56 S 10 10.00 Fair CLR 80.1 57.9 47% 81 30.18 1020.5
19 09:56 S 10 10.00 Fair CLR 75 61 62% 77 30.18 1020.6
19 08:56 S 10 10.00 Fair CLR 71.1 61 71% 30.2 1021.2
19 07:56 S 8 10.00 Fair CLR 66.9 61 81% 30.19 1020.9
19 06:56 SE 8 10.00 Fair CLR 62.1 61 66 60.1 96% 30.18 1020.5
19 05:56 SE 7 10.00 Fair CLR 60.1 60.1 100% 30.17 1020.3
19 04:56 E 9 10.00 Fair CLR 63 60.1 90% 30.17 1020.2
19 03:56 SE 7 10.00 Fair CLR 62.1 61 96% 30.18 1020.4
19 02:56 SE 7 10.00 Fair CLR 64 60.1 87% 30.18 1020.5
19 01:56 SE 8 10.00 Fair CLR 66 59 78% 30.18 1020.6
19 00:56 S 7 10.00 Fair CLR 66 60.1 82.9 66 81% 30.19 1021.1
18 23:56 E 9 10.00 Fair CLR 69.1 57.9 68% 30.19 1020.9
18 22:56 E 7 10.00 Fair CLR 70 55.9 61% 30.18 1020.6
18 21:56 E 6 10.00 Fair CLR 70 55.9 61% 30.17 1020.1
18 20:56 E 3 10.00 Fair CLR 73.9 55 52% 30.15 1019.5
18 19:56 E 6 10.00 Fair CLR 81 55 41% 81 30.14 1019.1
18 18:56 E 6 10.00 Fair CLR 82.9 54 86 82 37% 82 30.14 1019.1
18 17:56 NE 8 10.00 Fair CLR 84.9 55 36% 84 30.14 1019.3
18 16:56 NE 7 10.00 Fair CLR 84.9 54 35% 83 30.16 1019.9
18 15:56 SE 12 10.00 A Few Clouds FEW070 84.9 55 36% 84 30.19 1020.6
18 14:56 E 6 10.00 Fair CLR 84 54 36% 83 30.2 1021.2
18 13:56 Vrbl 6 10.00 A Few Clouds FEW065 84 54 36% 83 30.21 1021.7
18 12:56 Vrbl 6 10.00 A Few Clouds FEW100 84 55.9 84 64 38% 83 30.22 1022.0
18 11:56 Vrbl 7 10.00 A Few Clouds FEW049 81 57.9 45% 81 30.24 1022.3
18 10:56 SE 8 10.00 Fair CLR 79 59 50% 80 30.24 1022.5
18 09:56 E 8 10.00 Fair CLR 77 62.1 60% 79 30.24 1022.5
18 08:56 E 9 10.00 Fair CLR 73 64 74% 30.24 1022.4
18 07:56 E 7 10.00 Fair CLR 69.1 64 84% 30.23 1022.3
18 06:56 E 5 10.00 Fair CLR 64 64 70 64 100% 30.21 1021.5
18 05:56 E 6 10.00 Fair CLR 64.9 64.9 100% 30.19 1020.9
18 04:56 NE 5 10.00 Fair CLR 66 64.9 96% 30.19 1020.7
18 03:56 NE 7 10.00 Fair CLR 66.9 66 97% 30.18 1020.4
18 02:56 E 6 10.00 Fair CLR 68 64.9 90% 30.18 1020.3
18 01:56 NE 7 10.00 Fair CLR 68 64.9 90% 30.18 1020.4
18 00:56 NE 8 10.00 Fair CLR 70 64 84 70 82% 30.2 1021.0
17 23:56 NE 8 10.00 Fair CLR 71.1 64.9 81% 30.2 1021.0
17 22:56 NE 6 10.00 Fair CLR 73 64.9 76% 30.18 1020.5
17 21:56 NE 5 10.00 Fair CLR 75 64 69% 77 30.16 1019.9
17 20:56 NE 5 10.00 Fair CLR 78.1 64 62% 80 30.14 1019.2
17 19:56 NE 8 10.00 Fair CLR 82 61 49% 83 30.11 1018.2
17 18:56 NE 9 10.00 A Few Clouds FEW070 84 61 88 84 46% 84 30.09 1017.3
17 17:56 NE 14 G 18 10.00 A Few Clouds FEW065 86 60.1 42% 86 30.09 1017.2
17 16:56 NE 14 G 18 10.00 Fair CLR 87.1 61 42% 87 30.1 1017.7
17 15:56 NE 13 10.00 Fair CLR 88 63 43% 89 30.12 1018.3
17 14:56 N 15 G 20 10.00 Fair CLR 88 63 43% 89 30.13 1018.5
17 13:56 NE 12 G 21 10.00 Fair CLR 86 62.1 45% 87 30.13 1018.5
17 12:56 NE 13 G 21 10.00 Fair CLR 84 60.1 84.9 70 44% 84 30.14 1018.8
17 11:56 NE 16 G 23 10.00 Fair CLR 82 60.1 47% 82 30.13 1018.4
17 10:56 NE 15 G 18 10.00 Fair CLR 78.1 64.9 64% 80 30.11 1018.1
17 09:56 NE 9 10.00 Fair CLR 75 70 84% 75 30.11 1018.1
17 08:56 NE 12 9.00 Fair CLR 72 70 94% 30.09 1017.3
17 06:56 NE 9 10.00 Overcast OVC019 70 70 75.9 70 100% 30.07 1016.5
17 05:56 Vrbl 3 10.00 Overcast FEW013 BKN019 OVC030 71.6 0 0% 30.05 1016.0
17 04:56 N 5 10.00 Overcast FEW007 OVC037 71.6 0 0% 30.02 1014.7
17 03:56 NE 7 10.00 Overcast OVC005 71.6 0 0% 30 1014.0
17 02:56 NE 12 G 17 10.00 Overcast OVC007 73.4 0 0% 29.98 1013.4
17 01:56 E 8 10.00 Partly Cloudy SCT007 73.4 0 0% 29.96 1012.7
17 00:56 NE 9 10.00 Fair CLR 75.2 0 88 75.9 0% 29.97 1013.1
16 23:56 NE 7 10.00 Fair CLR 78.1 77 97% 81 29.97 1013.2
16 22:56 NE 8 10.00 Fair CLR 79 75.9 90% 83 29.97 1013.0
Date Time (cdt) Wind (mph) Vis. (mi.) Weather Sky Cond. Air Dwpt Max. Min. Relative Humidity Wind Chill (°F) Heat Index (°F) altimeter (in) sea level (mb) 1 hr 3 hr 6 hr
6 hour
Temperature (ºF) Pressure Precipitation (in)